Tracking 19827 objects as of 21-Aug-2019
HD Live streaming from Space Station
objects crossing your sky now

RADUGA 17

Track RADUGA 17 now!
RADUGA 17 is classified as:


NORAD ID: 16250
Int'l Code: 1985-107A
Perigee: 35,782.7 km
Apogee: 35,861.6 km
Inclination: 13.6 °
Period: 1,437.5 minutes
Semi major axis: 42193 km
RCS: 3.981 m2 (large)
Launch date: November 15, 1985
Source: Commonwealth of Independent States (former USSR) (CIS)
Launch site: TYURATAM MISSILE AND SPACE COMPLEX (TTMTR)
aabbcc
Your satellite tracking list
Your tracking list is empty




NASA's NSSDC Master Catalog

Two Line Element Set (TLE):
1 16250U 85107A   19231.98435256  .00000048  00000-0  00000+0 0  9994
2 16250  13.5781 338.7930 0009345 159.2186 197.3743  1.00170446126823
Source of the keplerian elements: AFSPC